CW6301 Weather Reports


Display with metric or nautical units.
time (UTC)temp
F
wind
direction
speed
MPH
gust
MPH
rain 1hr
in
rain 24hr
in
rain mn
in
humidity
%
barometer
mb
20180921010008 69 105 6.0 11.0 0.00 0.29 0.29 98 1006.1
20180921003008 69 117 10.0 12.0 0.00 0.29 0.29 98 1006.0
20180921000006 69 96 10.0 11.0 0.00 0.29 0.29 98 1006.5
20180920233005 69 154 6.0 10.0 0.00 0.29 0.29 97 1007.0
20180920230005 70 85 5.0 9.0 0.00 0.29 0.29 95 1007.7
20180920223004 71 101 2.0 12.0 0.00 0.29 0.29 94 1008.0
20180920220003 71 119 6.0 12.0 0.00 0.29 0.29 93 1008.5
20180920213003 72 104 4.0 11.0 0.00 0.32 0.29 92 1009.2
20180920210002 71 119 6.0 12.0 0.00 0.38 0.29 91 1009.8
20180920203001 70 100 9.0 12.0 0.00 0.38 0.29 93 1010.3
20180920200000 70 120 7.0 12.0 0.00 0.38 0.29 93 1011.0
20180920193000 69 135 9.0 14.0 0.00 0.38 0.29 93 1011.0
20180920185959 70 117 5.0 15.0 0.00 0.38 0.29 92 1011.7
20180920182958 70 94 8.0 12.0 0.00 0.38 0.29 91 1012.4
20180920175958 70 67 7.0 13.0 0.00 0.38 0.29 90 1013.1
20180920172958 71 81 9.0 14.0 0.00 0.38 0.29 91 1013.0
20180920165956 68 109 6.0 12.0 0.00 0.38 0.29 98 1013.4
20180920162956 67 93 3.0 10.0 0.00 0.38 0.29 98 1014.2
20180920155955 67 93 3.0 8.0 0.00 0.38 0.29 99 1014.7
20180920152954 66 104 5.0 7.0 0.00 0.38 0.29 99 1014.7
20180920145953 66 134 7.0 9.0 0.00 0.38 0.29 99 1014.4
20180920142953 65 120 4.0 8.0 0.00 0.38 0.29 99 1014.5
20180920140024 65 103 4.0 9.0 0.02 0.38 0.29 99 1014.5
20180920132951 64 67 4.0 7.0 0.02 0.38 0.29 99 1014.5
20180920130020 63 108 1.0 5.0 0.01 0.36 0.27 99 1014.8
20180920123020 62 61 0.0 6.0 0.03 0.36 0.27 98 1014.9
20180920120019 62 75 2.0 8.0 0.04 0.35 0.26 98 1014.6
20180920113018 62 72 2.0 9.0 0.05 0.33 0.24 98 1014.5
20180920110018 62 115 5.0 8.0 0.04 0.31 0.22 98 1014.5
20180920103017 62 105 4.0 6.0 0.01 0.28 0.19 98 1014.4
20180920100016 61 108 3.0 7.0 0.04 0.27 0.18 98 1014.6
20180920093015 61 70 4.0 6.0 0.09 0.27 0.18 98 1013.9
20180920090015 60 75 1.0 2.0 0.09 0.23 0.14 98 1015.3
20180920083014 60 72 0.0 2.0 0.07 0.18 0.09 98 1015.8
20180920080014 60 267 0.0 1.0 0.04 0.14 0.05 98 1015.7
20180920073013 60 85 0.0 0.0 0.02 0.11 0.02 98 1015.9
20180920070012 60 85 0.0 3.0 0.01 0.10 0.01 98 1016.3
20180920063011 60 104 0.0 3.0 0.00 0.09 0.00 97 1016.1
20180920060011 59 103 2.0 5.0 0.00 0.09 0.00 97 1016.4
20180920053010 59 125 4.0 4.0 0.00 0.09 0.00 97 1016.4
20180920050009 59 127 0.0 4.0 0.00 0.09 0.00 97 1016.4
20180920043008 59 68 2.0 4.0 0.00 0.09 0.09 97 1015.9
20180920040013 58 71 1.0 5.0 0.00 0.09 0.09 97 1016.0
20180920033007 58 98 2.0 9.0 0.00 0.09 0.09 98 1015.2
20180920030007 58 109 3.0 5.0 0.00 0.09 0.09 98 1015.5
20180920023005 58 78 2.0 3.0 0.00 0.09 0.09 97 1016.1
20180920020005 58 80 2.0 4.0 0.00 0.09 0.09 97 1016.2
20180920013004 58 105 2.0 6.0 0.00 0.09 0.09 97 1016.1